User: anonymous
Location: Columbia
(38.9520°N, 92.3340°W)
Time: 20:57:50
(UTC-05:00)
Language:

SJ-11-01 - Orbit

View from above orbital plane
View from above orbital plane
View from above satellite
View from above satellite

Ground track
Ground track

The orbit data is extracted from the following two-line orbital elements,

1 36088U 09061A   14233.48866332  .00000147  00000-0  39882-4 0  3118
2 36088 098.0305 279.8053 0009710 233.2108 126.8206 14.60103793254260
Epoch (UTC): 21 August 2014 11:43:40
Eccentricity: 0.0009710
inclination: 98.0305°
perigee height: 686 km
apogee height: 700 km
right ascension of ascending node: 279.8053°
argument of perigee: 233.2108°
revolutions per day: 14.60103793
mean anomaly at epoch: 126.8206°
orbit number at epoch: 25426

The dashed part of the orbit path shows where the satellite is in the earth's shadow,  

DLR